When you browse on this site, cookies collect data to enhance your experience and personalize the content and advertising you see.
Visit our Privacy Policy to learn more. By continuing to use the site, you agree to this use of cookies and data.
  • In Hungary
  • List of Countries
  • For 7 days
  • Water Temperature
  • Satellite Maps
  • Weather Map
  • News
  • Weather Widgets
  • user-avatar
    Login

    Hourly Weather Zieleniec

    Today, 22 May, Wednesday

    Time Temperature Precipitation Wind Pressure Humidity
    00:00 +12°C° 0 mm 5 mps 739 mmHg 87%
    01:00 +12°C° 0 mm 5 mps 739 mmHg 88%
    02:00 +12°C° 0 mm 5 mps 738 mmHg 90%
    03:00 +12°C° 0 mm 5 mps 738 mmHg 90%
    04:00 +12°C° 0 mm 5 mps 739 mmHg 90%
    05:00 +12°C° 0 mm 5 mps 739 mmHg 90%
    06:00 +12°C° 0.1 mm 5 mps 739 mmHg 90%
    07:00 +13°C° 0.1 mm 5 mps 739 mmHg 90%
    08:00 +14°C° 0 mm 5 mps 739 mmHg 90%
    09:00 +14°C° 0.2 mm 5 mps 739 mmHg 89%
    10:00 +15°C° 0.2 mm 5 mps 739 mmHg 87%
    11:00 +15°C° 0.2 mm 5 mps 739 mmHg 86%
    12:00 +16°C° 0.2 mm 5 mps 739 mmHg 82%
    13:00 +17°C° 0.2 mm 5 mps 739 mmHg 78%
    14:00 +19°C° 0.2 mm 5 mps 739 mmHg 74%
    15:00 +19°C° 0.5 mm 4 mps 739 mmHg 75%
    16:00 +19°C° 0.5 mm 4 mps 739 mmHg 76%
    17:00 +20°C° 0.5 mm 4 mps 739 mmHg 77%
    18:00 +18°C° 0.1 mm 3 mps 739 mmHg 82%
    19:00 +17°C° 0.1 mm 3 mps 739 mmHg 87%
    20:00 +16°C° 0.1 mm 3 mps 739 mmHg 91%
    21:00 +15°C° 0 mm 2 mps 740 mmHg 92%
    22:00 +15°C° 0 mm 2 mps 740 mmHg 94%
    23:00 +14°C° 0 mm 2 mps 740 mmHg 95%

    Tomorrow, 23 May, Thursday

    Time Temperature Precipitation Wind Pressure Humidity
    00:00 +13°C° 0 mm 2 mps 740 mmHg 95%
    01:00 +13°C° 0 mm 1 mps 741 mmHg 95%
    02:00 +13°C° 0 mm 1 mps 741 mmHg 95%
    03:00 +12°C° 0 mm 1 mps 741 mmHg 95%
    04:00 +12°C° 0 mm 1 mps 741 mmHg 95%
    05:00 +12°C° 0 mm 1 mps 741 mmHg 95%
    06:00 +14°C° 0 mm 1 mps 742 mmHg 91%
    07:00 +15°C° 0 mm 1 mps 742 mmHg 87%
    08:00 +18°C° 0 mm 1 mps 742 mmHg 83%
    09:00 +19°C° 0 mm 1 mps 742 mmHg 78%
    10:00 +20°C° 0 mm 1 mps 743 mmHg 73%
    11:00 +20°C° 0 mm 2 mps 743 mmHg 68%
    12:00 +21°C° 0.5 mm 2 mps 743 mmHg 66%
    13:00 +23°C° 0.5 mm 2 mps 743 mmHg 65%
    14:00 +23°C° 0.5 mm 2 mps 743 mmHg 63%
    15:00 +23°C° 1.2 mm 2 mps 742 mmHg 65%
    16:00 +23°C° 1.2 mm 2 mps 742 mmHg 67%
    17:00 +23°C° 1.2 mm 1 mps 742 mmHg 69%
    18:00 +20°C° 1.6 mm 2 mps 742 mmHg 75%
    19:00 +19°C° 1.6 mm 2 mps 743 mmHg 80%
    20:00 +18°C° 1.6 mm 3 mps 743 mmHg 86%
    21:00 +17°C° 0.8 mm 3 mps 743 mmHg 89%
    22:00 +15°C° 0.8 mm 4 mps 743 mmHg 92%
    23:00 +15°C° 0.8 mm 4 mps 744 mmHg 95%

    Day after tomorrow, 24 May, Friday

    Time Temperature Precipitation Wind Pressure Humidity
    00:00 +14°C° 0.1 mm 4 mps 744 mmHg 95%
    01:00 +14°C° 0.1 mm 5 mps 744 mmHg 96%
    02:00 +13°C° 0.1 mm 5 mps 744 mmHg 96%
    03:00 +13°C° 0.1 mm 5 mps 744 mmHg 95%
    04:00 +12°C° 0.1 mm 4 mps 744 mmHg 95%
    05:00 +12°C° 0.1 mm 4 mps 744 mmHg 95%
    06:00 +12°C° 0 mm 4 mps 744 mmHg 93%
    07:00 +13°C° 0 mm 4 mps 744 mmHg 91%
    08:00 +13°C° 0 mm 3 mps 744 mmHg 89%
    09:00 +14°C° 0 mm 4 mps 744 mmHg 85%
    10:00 +15°C° 0 mm 4 mps 744 mmHg 81%
    11:00 +18°C° 0 mm 4 mps 744 mmHg 77%
    12:00 +18°C° 0 mm 4 mps 744 mmHg 77%
    13:00 +19°C° 0 mm 4 mps 744 mmHg 77%
    14:00 +19°C° 0 mm 4 mps 744 mmHg 76%
    15:00 +20°C° 0.4 mm 4 mps 744 mmHg 76%
    16:00 +20°C° 0.4 mm 4 mps 743 mmHg 76%
    17:00 +20°C° 0.4 mm 4 mps 743 mmHg 76%
    18:00 +19°C° 0.3 mm 3 mps 743 mmHg 80%
    19:00 +18°C° 0.3 mm 3 mps 743 mmHg 84%
    20:00 +17°C° 0.3 mm 3 mps 743 mmHg 88%
    21:00 +16°C° 0 mm 3 mps 743 mmHg 88%
    22:00 +14°C° 0 mm 3 mps 743 mmHg 89%
    23:00 +13°C° 0 mm 3 mps 743 mmHg 90%

    25 May, Saturday

    Time Temperature Precipitation Wind Pressure Humidity
    00:00 +12°C° 0 mm 3 mps 743 mmHg 91%
    01:00 +11°C° 0 mm 3 mps 743 mmHg 92%
    02:00 +11°C° 0 mm 3 mps 743 mmHg 92%
    03:00 +10°C° 0 mm 3 mps 743 mmHg 91%
    04:00 +10°C° 0 mm 2 mps 743 mmHg 90%
    05:00 +9°C° 0 mm 2 mps 743 mmHg 89%
    06:00 +12°C° 0 mm 2 mps 743 mmHg 84%
    07:00 +14°C° 0 mm 2 mps 743 mmHg 79%
    08:00 +16°C° 0 mm 2 mps 744 mmHg 75%
    09:00 +17°C° 0 mm 3 mps 744 mmHg 71%
    10:00 +19°C° 0 mm 3 mps 743 mmHg 68%
    11:00 +20°C° 0 mm 3 mps 743 mmHg 65%
    12:00 +21°C° 0.1 mm 4 mps 743 mmHg 63%
    13:00 +21°C° 0.1 mm 4 mps 743 mmHg 61%
    14:00 +21°C° 0.1 mm 4 mps 743 mmHg 59%
    15:00 +21°C° 0.2 mm 4 mps 743 mmHg 64%
    16:00 +20°C° 0.2 mm 4 mps 742 mmHg 69%
    17:00 +19°C° 0.2 mm 4 mps 742 mmHg 73%
    18:00 +18°C° 0 mm 3 mps 742 mmHg 77%
    19:00 +17°C° 0 mm 3 mps 742 mmHg 80%
    20:00 +16°C° 0 mm 2 mps 742 mmHg 83%
    21:00 +15°C° 0 mm 2 mps 743 mmHg 85%
    22:00 +14°C° 0 mm 2 mps 743 mmHg 87%
    23:00 +13°C° 0 mm 2 mps 743 mmHg 90%

    26 May, Sunday

    Time Temperature Precipitation Wind Pressure Humidity
    00:00 +12°C° 0 mm 3 mps 743 mmHg 90%
    01:00 +11°C° 0 mm 3 mps 743 mmHg 91%
    02:00 +11°C° 0 mm 3 mps 743 mmHg 91%
    03:00 +10°C° 0 mm 3 mps 743 mmHg 92%
    04:00 +10°C° 0 mm 3 mps 743 mmHg 94%
    05:00 +10°C° 0 mm 3 mps 743 mmHg 95%
    06:00 +11°C° 0 mm 3 mps 743 mmHg 88%
    07:00 +12°C° 0 mm 4 mps 743 mmHg 82%
    08:00 +13°C° 0 mm 4 mps 743 mmHg 76%
    09:00 +14°C° 0 mm 5 mps 743 mmHg 72%
    10:00 +15°C° 0 mm 5 mps 743 mmHg 69%
    11:00 +16°C° 0 mm 6 mps 743 mmHg 66%
    12:00 +16°C° 0 mm 6 mps 743 mmHg 66%
    13:00 +16°C° 0 mm 6 mps 743 mmHg 66%
    14:00 +16°C° 0 mm 6 mps 742 mmHg 66%
    15:00 +16°C° 0 mm 6 mps 742 mmHg 67%
    16:00 +16°C° 0 mm 6 mps 742 mmHg 67%
    17:00 +15°C° 0 mm 6 mps 742 mmHg 68%
    18:00 +14°C° 0 mm 5 mps 742 mmHg 71%
    19:00 +13°C° 0 mm 4 mps 742 mmHg 75%
    20:00 +12°C° 0 mm 4 mps 742 mmHg 78%
    21:00 +11°C° 0 mm 3 mps 743 mmHg 80%
    22:00 +10°C° 0 mm 3 mps 743 mmHg 81%
    23:00 +8°C° 0 mm 3 mps 743 mmHg 83%

    27 May, Monday

    Time Temperature Precipitation Wind Pressure Humidity
    00:00 +7°C° 0 mm 4 mps 744 mmHg 83%
    01:00 +7°C° 0 mm 4 mps 744 mmHg 83%
    02:00 +6°C° 0 mm 4 mps 744 mmHg 82%
    03:00 +6°C° 0 mm 4 mps 744 mmHg 83%
    04:00 +5°C° 0 mm 4 mps 744 mmHg 84%
    05:00 +5°C° 0 mm 4 mps 744 mmHg 85%
    06:00 +7°C° 0 mm 4 mps 745 mmHg 80%
    07:00 +8°C° 0 mm 5 mps 745 mmHg 75%
    08:00 +10°C° 0 mm 5 mps 745 mmHg 69%
    09:00 +12°C° 0 mm 5 mps 745 mmHg 68%
    10:00 +13°C° 0 mm 5 mps 745 mmHg 66%
    11:00 +14°C° 0 mm 5 mps 745 mmHg 64%
    12:00 +15°C° 0 mm 4 mps 745 mmHg 61%
    13:00 +18°C° 0 mm 4 mps 745 mmHg 58%
    14:00 +19°C° 0 mm 4 mps 745 mmHg 55%
    15:00 +19°C° 0 mm 3 mps 745 mmHg 54%
    16:00 +19°C° 0 mm 2 mps 744 mmHg 53%
    17:00 +19°C° 0 mm 2 mps 744 mmHg 52%
    18:00 +18°C° 0 mm 2 mps 744 mmHg 57%
    19:00 +17°C° 0 mm 2 mps 743 mmHg 63%
    20:00 +16°C° 0 mm 2 mps 743 mmHg 68%
    21:00 +15°C° 0 mm 2 mps 743 mmHg 70%
    22:00 +13°C° 0 mm 3 mps 743 mmHg 72%
    23:00 +13°C° 0 mm 3 mps 742 mmHg 74%
    Show more